STARLINK-2396, 47815

Orbit data source: Space-Track

STARLINK-2396, 47815 is a payload satellite owned by SpaceX/Seattle (US) in LEO that was launched on Thu, 11 Mar 2021 UTC via an FALCON 9 launch vehicle from the Air Force Eastern Test Range (AFETR). Payload-class satellites include a variety of spacecraft equipped with specific instruments for various scientific and technological missions. These include communications satellites like Starlink; space stations such as the ISS; scientific satellites like the Hubble; Earth observation satellites from companies like Planet Labs, Umbra, and HawkEye 360; GPS; miniature CubeSats for education and research; and military/defense satellites.

Loading next visibility...
Identifier
47815, 2021-018AE
Orbit
LEO
Country
Flag of USUS
Related business
Manufacturer
SpaceX/Seattle
Mission
Operational Commercial Communications
Bus & Motor
STARLINK, Unknown motor
Mass
260 kg wet, ~248 kg dry
Launch date (UTC)
2021-03-11 (5 years ago)
Launch vehicle
FALCON 9
Launch site
Air Force Eastern Test Range (AFETR)
Object type
Payload
Rocket body
Debris
Shape & HBR
Box + 1 Pan, 10.1 m
Radar Cross Section
13.562 m², Large (>1 m²)

Expand to show TLE details & history
Last TLE update: 8 hours ago

TLE from 8 hours ago
0 STARLINK-2396
1 47815U 21018AE  26035.41169282  .00001175  00000-0  97707-4 0  9994
2 47815  53.0563  36.0093 0001449 103.9216 256.1934 15.06410648271645
Epoch: 2026-02-04T09:52Z
TLE epoch observation values (Epoch: 2026-02-04T09:52:50.259Z)
Latitude
-0.00005°
Longitude
113.2212°
Altitude
548.298 km
Speed
7.589 km/s
True Right ascension
02h 24m 02s
True Declination
0° 00' 00"
Sunlit
Object was in daylight at epoch
Visualization orbit readout
Latitude
Unknown
Longitude
Unknown
Altitude
Unknown
Speed
Unknown
Apparent Right ascension
Unknown
Apparent Declination
Unknown
Sunlit
N/A
Visualization observer readout
Local Sidereal Time
20:02:29
Azimuth
Unknown
Elevation
Unknown
Doppler factor
Unknown
Orbital elements
Apogee altitude
548.453 km
Perigee altitude
546.446 km
Semi-major axis
6,925.586 km
Eccentricity
0.00014
Inclination
53.0563°
RAAN
36.0093°
Arg. of periapsis
103.9216°
True anomaly
256.17728°
Mean anomaly
256.1934°
Eccentric anomaly
256.18534°
Mean motion
3.76581 °/min
Orbital period
95.6 mins
BSTAR
0.000097707
Loading maneuver chart data...
Computing Atmospheric mass density...
Loading historical data...
Loading historical data...
Loading historical data...
Loading historical data...
Loading historical data...
Loading historical data...
Loading historical data...

Documentation

Showing up to 5 results
|